Bowling Green, Kentucky, United States (42101)
Lat: 36.99N, Lon: 86.44W
Wx Zone: KYZ071
Local Info
Past Weather Observations for Today

NOTE: This archive is for the closest National Weather Service station to Bowling Green. Information may differ from the station used for current weather conditions.

Time Weather Temperature Dewpoint Humidity Pressure Winds Precip Visibility
20:55
Clear
70°F / 21°C 43°F / 6°C 38% 29.74 in
(1007 mb)
SSE 5.8 mph
(SSE 9 kph)
- 10SM
20:35
Clear
70°F / 21°C 41°F / 5°C 35% 29.74 in
(1007 mb)
SSE 5.8 mph
(SSE 9 kph)
- 10SM
20:15
Clear
70°F / 21°C 41°F / 5°C 35% 29.74 in
(1007 mb)
SSE 5.8 mph
(SSE 9 kph)
- 10SM
19:55
Clear
70°F / 21°C 41°F / 5°C 35% 29.77 in
(1008 mb)
SE 5.8 mph
(SE 9 kph)
- 10SM
19:35
Clear
70°F / 21°C 41°F / 5°C 35% 29.77 in
(1008 mb)
SSE 4.6 mph
(SSE 7 kph)
- 10SM
19:15
Clear
72°F / 22°C 41°F / 5°C 33% 29.8 in
(1009 mb)
SSE 4.6 mph
(SSE 7 kph)
- 10SM
18:55
Clear
72°F / 22°C 39°F / 4°C 31% 29.8 in
(1009 mb)
SSE 3.5 mph
(SSE 6 kph)
- 10SM
18:35
Clear
72°F / 22°C 39°F / 4°C 31% 29.77 in
(1008 mb)
SSE 3.5 mph
(SSE 6 kph)
- 10SM
18:15
Clear
73°F / 23°C 39°F / 4°C 29% 29.8 in
(1009 mb)
S 3.5 mph
(S 6 kph)
- 10SM
17:55
Clear
73°F / 23°C 39°F / 4°C 29% 29.8 in
(1009 mb)
SSE 3.5 mph
(SSE 6 kph)
- 10SM
17:35
Clear
73°F / 23°C 37°F / 3°C 27% 29.8 in
(1009 mb)
S 4.6 mph
(S 7 kph)
- 10SM
17:15
Clear
75°F / 24°C 37°F / 3°C 25% 29.8 in
(1009 mb)
S 3.5 mph
(S 6 kph)
- 10SM
16:55
Clear
77°F / 25°C 37°F / 3°C 24% 29.8 in
(1009 mb)
S 9.2 mph
(S 15 kph)
- 10SM
16:35
Clear
77°F / 25°C 39°F / 4°C 26% 29.83 in
(1010 mb)
SW 8.1 mph
(SW 13 kph)
- 10SM
16:15
Clear
77°F / 25°C 37°F / 3°C 24% 29.83 in
(1010 mb)
SW 9.2 mph
(SW 15 kph)
- 10SM
15:55
Clear
77°F / 25°C 36°F / 2°C 22% 29.83 in
(1010 mb)
SW 8.1 mph
(SW 13 kph)
- 10SM
15:35
Clear
77°F / 25°C 37°F / 3°C 24% 29.86 in
(1011 mb)
SSE 8.1 mph
(SSE 13 kph)
- 10SM
15:15
Clear
77°F / 25°C 37°F / 3°C 24% 29.86 in
(1011 mb)
SSE 8.1 mph
(SSE 13 kph)
- 10SM
14:55
Clear
77°F / 25°C 37°F / 3°C 24% 29.86 in
(1011 mb)
SW 8.1 mph
(SW 13 kph)
- 10SM
14:35
Clear
77°F / 25°C 39°F / 4°C 26% 29.86 in
(1011 mb)
SW 9.2 mph
(SW 15 kph)
- 10SM
14:15
Clear
77°F / 25°C 39°F / 4°C 26% 29.89 in
(1012 mb)
SW 4.6 mph
(SW 7 kph)
- 10SM
13:55
Clear
77°F / 25°C 39°F / 4°C 26% 29.89 in
(1012 mb)
S 10.4 mph
(S 17 kph)
- 10SM
13:35
Clear
77°F / 25°C 39°F / 4°C 26% 29.89 in
(1012 mb)
S 11.5 mph
(S 19 kph)
- 10SM
13:15
Clear
75°F / 24°C 37°F / 3°C 25% 29.92 in
(1013 mb)
S 9.2 mph
(S 15 kph)
- 10SM
12:55
Clear
75°F / 24°C 37°F / 3°C 25% 29.92 in
(1013 mb)
S 9.2 mph
(S 15 kph)
- 10SM
12:35
Clear
75°F / 24°C 39°F / 4°C 27% 29.92 in
(1013 mb)
SSE 9.2 mph
(SSE 15 kph)
- 10SM
12:15
Clear
73°F / 23°C 41°F / 5°C 31% 29.92 in
(1013 mb)
S 3.5 mph
(S 6 kph)
- 10SM
11:55
Clear
73°F / 23°C 39°F / 4°C 29% 29.92 in
(1013 mb)
S 3.5 mph
(S 6 kph)
- 10SM
11:35
Clear
72°F / 22°C 39°F / 4°C 31% 29.95 in
(1014 mb)
Calm - 10SM
11:15
Clear
72°F / 22°C 39°F / 4°C 31% 29.95 in
(1014 mb)
SSE 8.1 mph
(SSE 13 kph)
- 10SM
10:55
Clear
70°F / 21°C 39°F / 4°C 33% 29.95 in
(1014 mb)
S 6.9 mph
(S 11 kph)
- 10SM
10:35
Clear
70°F / 21°C 39°F / 4°C 33% 29.98 in
(1015 mb)
SSE 4.6 mph
(SSE 7 kph)
- 10SM
10:15
Clear
68°F / 20°C 37°F / 3°C 33% 29.98 in
(1015 mb)
SSE 6.9 mph
(SSE 11 kph)
- 10SM
09:55
Clear
68°F / 20°C 36°F / 2°C 30% 29.98 in
(1015 mb)
SE 6.9 mph
(SE 11 kph)
- 10SM
09:35
Clear
66°F / 19°C 37°F / 3°C 35% 30.01 in
(1016 mb)
SSE 4.6 mph
(SSE 7 kph)
- 10SM
09:15
Clear
64°F / 18°C 36°F / 2°C 34% 30.01 in
(1016 mb)
SE 5.8 mph
(SE 9 kph)
- 10SM
08:55
Clear
63°F / 17°C 37°F / 3°C 39% 30.01 in
(1016 mb)
Calm - 10SM
08:35
Clear
63°F / 17°C 37°F / 3°C 39% 30.04 in
(1017 mb)
SE 3.5 mph
(SE 6 kph)
- 10SM
08:15
Clear
59°F / 15°C 37°F / 3°C 45% 30.04 in
(1017 mb)
E 4.6 mph
(E 7 kph)
- 10SM
07:55
Clear
57°F / 14°C 37°F / 3°C 48% 30.04 in
(1017 mb)
ESE 4.6 mph
(ESE 7 kph)
- 10SM
07:35
Clear
55°F / 13°C 37°F / 3°C 51% 30.04 in
(1017 mb)
E 3.5 mph
(E 6 kph)
- 10SM
07:15
Clear
55°F / 13°C 37°F / 3°C 51% 30.04 in
(1017 mb)
SE 5.8 mph
(SE 9 kph)
- 10SM
06:55
Clear
54°F / 12°C 37°F / 3°C 54% 30.04 in
(1017 mb)
E 4.6 mph
(E 7 kph)
- 10SM
06:35
Clear
50°F / 10°C 37°F / 3°C 62% 30.01 in
(1016 mb)
ENE 4.6 mph
(ENE 7 kph)
- 10SM
06:15
Clear
48°F / 9°C 37°F / 3°C 66% 30.01 in
(1016 mb)
E 3.5 mph
(E 6 kph)
- 10SM
05:55
Clear
46°F / 8°C 37°F / 3°C 71% 30.01 in
(1016 mb)
E 3.5 mph
(E 6 kph)
- 10SM
05:35
Clear
46°F / 8°C 37°F / 3°C 71% 30.01 in
(1016 mb)
ENE 3.5 mph
(ENE 6 kph)
- 10SM
05:15
Clear
46°F / 8°C 37°F / 3°C 71% 30.01 in
(1016 mb)
Calm - 10SM
04:55
Clear
48°F / 9°C 37°F / 3°C 66% 30.01 in
(1016 mb)
N 3.5 mph
(N 6 kph)
- 10SM
04:35
Clear
48°F / 9°C 36°F / 2°C 62% 30.01 in
(1016 mb)
Calm - 10SM
04:15
Clear
46°F / 8°C 36°F / 2°C 66% 30.01 in
(1016 mb)
Calm - 10SM
03:55
Clear
46°F / 8°C 36°F / 2°C 66% 30.01 in
(1016 mb)
ENE 3.5 mph
(ENE 6 kph)
- 10SM
03:35
Clear
46°F / 8°C 36°F / 2°C 66% 30.01 in
(1016 mb)
Calm - 10SM
03:15
Clear
46°F / 8°C 36°F / 2°C 66% 30.01 in
(1016 mb)
ENE 3.5 mph
(ENE 6 kph)
- 10SM
02:55
Clear
46°F / 8°C 36°F / 2°C 66% 30.01 in
(1016 mb)
E 6.9 mph
(E 11 kph)
- 10SM
02:35
Clear
48°F / 9°C 36°F / 2°C 62% 30.01 in
(1016 mb)
ENE 5.8 mph
(ENE 9 kph)
- 10SM
02:15
Clear
45°F / 7°C 36°F / 2°C 71% 30.01 in
(1016 mb)
ENE 3.5 mph
(ENE 6 kph)
- 10SM
01:55
Clear
43°F / 6°C 36°F / 2°C 76% 30.01 in
(1016 mb)
Calm - 10SM
01:35
Clear
43°F / 6°C 36°F / 2°C 76% 30.01 in
(1016 mb)
Calm - 10SM
01:15
Clear
46°F / 8°C 36°F / 2°C 66% 30.01 in
(1016 mb)
Calm - 10SM
00:55
Clear
46°F / 8°C 34°F / 1°C 62% 30.01 in
(1016 mb)
E 3.5 mph
(E 6 kph)
- 10SM
00:35
Clear
46°F / 8°C 36°F / 2°C 66% 30.01 in
(1016 mb)
Calm - 10SM
00:15
Clear
46°F / 8°C 36°F / 2°C 66% 30.04 in
(1017 mb)
Calm - 10SM
Time Weather Temperature Dewpoint Humidity Pressure Winds Precip Visibility


Weather for websites

WeatherForYou.com, LLC is not responsible for any damages or problems caused by this service. Current weather conditions are obtained from the closest station including government and personal stations which may have varying degrees of accuracy. Weather forecasts are derived from the NOAA NDFD. Like all things, this site belongs to Jesus Christ... He just trusts me to maintain it. If you have any questions or comments email webmaster@weatherforyou.com

Copyright © 2014, WeatherForYou.com LLC. All rights reserved.